TimeMDT,TemperatureF,Dew PointF,Humidity,Sea Level PressureIn,VisibilityMPH,Wind Direction,Wind SpeedMPH,Gust SpeedMPH,PrecipitationIn,Events,Conditions,WindDirDegrees,DateUTC
12:52 AM,68.0,26.1,21,29.99,10.0,Calm,Calm,-,N/A,,Scattered Clouds,0,2012-09-24 06:52:00
1:52 AM,68.0,26.6,21,30.22,10.0,ESE,4.6,-,N/A,,Mostly Cloudy,120,2012-09-24 07:52:00
2:52 AM,66.9,26.1,21,29.95,10.0,SSE,9.2,-,N/A,,Mostly Cloudy,160,2012-09-24 08:52:00
3:52 AM,64.9,26.1,23,29.95,10.0,South,6.9,-,N/A,,Mostly Cloudy,180,2012-09-24 09:52:00
4:52 AM,64.0,25.0,23,29.95,10.0,SE,8.1,-,N/A,,Mostly Cloudy,130,2012-09-24 10:52:00
5:52 AM,62.1,25.0,24,29.97,10.0,SE,9.2,-,N/A,,Scattered Clouds,130,2012-09-24 11:52:00
6:52 AM,61.0,25.0,25,29.99,10.0,Calm,Calm,-,N/A,,Scattered Clouds,0,2012-09-24 12:52:00
7:52 AM,63.0,25.0,24,30.01,10.0,SSE,5.8,-,N/A,,Mostly Cloudy,150,2012-09-24 13:52:00
8:52 AM,64.9,25.0,22,30.03,10.0,Calm,Calm,-,N/A,,Mostly Cloudy,0,2012-09-24 14:52:00
9:52 AM,70.0,26.1,19,30.01,10.0,South,10.4,-,N/A,,Mostly Cloudy,190,2012-09-24 15:52:00
10:52 AM,73.0,26.1,17,30.00,10.0,SSW,11.5,-,N/A,,Mostly Cloudy,200,2012-09-24 16:52:00
11:52 AM,73.9,28.9,19,29.99,10.0,South,6.9,-,N/A,,Mostly Cloudy,190,2012-09-24 17:52:00
12:52 PM,78.1,28.9,17,29.95,10.0,Calm,Calm,-,N/A,,Mostly Cloudy,0,2012-09-24 18:52:00
1:52 PM,80.1,28.9,15,29.89,10.0,South,6.9,-,N/A,,Overcast,190,2012-09-24 19:52:00
2:52 PM,81.0,30.0,16,29.86,10.0,SW,6.9,-,N/A,,Mostly Cloudy,230,2012-09-24 20:52:00
3:52 PM,81.0,28.9,15,29.84,10.0,SW,5.8,-,N/A,,Mostly Cloudy,220,2012-09-24 21:52:00
4:52 PM,82.0,30.9,16,29.83,10.0,Variable,5.8,-,N/A,,Mostly Cloudy,0,2012-09-24 22:52:00
5:52 PM,79.0,33.1,19,29.86,10.0,NNW,15.0,-,0.00,Rain,Light Rain,330,2012-09-24 23:52:00
6:11 PM,75.2,35.6,24,30.09,10.0,West,20.7,35.7,0.00,,Mostly Cloudy,280,2012-09-25 00:11:00
6:52 PM,73.9,37.9,27,29.89,10.0,North,16.1,-,0.00,,Mostly Cloudy,350,2012-09-25 00:52:00
7:52 PM,73.0,37.9,28,29.88,10.0,NE,6.9,-,N/A,,Mostly Cloudy,40,2012-09-25 01:52:00
8:52 PM,70.0,37.9,31,29.88,10.0,SSE,5.8,-,N/A,,Mostly Cloudy,160,2012-09-25 02:52:00
9:52 PM,72.0,36.0,27,29.88,10.0,South,13.8,18.4,N/A,,Mostly Cloudy,190,2012-09-25 03:52:00
10:08 PM,71.6,37.4,29,30.10,10.0,South,11.5,-,N/A,,Mostly Cloudy,170,2012-09-25 04:08:00
10:52 PM,71.1,37.0,29,29.87,10.0,SW,5.8,-,N/A,,Mostly Cloudy,230,2012-09-25 04:52:00
11:16 PM,66.2,42.8,43,30.16,10.0,NW,25.3,41.4,0.00,Rain,Light Rain,320,2012-09-25 05:16:00
11:52 PM,62.6,46.4,55,30.16,10.0,North,20.7,29.9,N/A,Rain,Light Rain,360,2012-09-25 05:52:00